Weather History for Mobridge, SD

Change the Weather History Date:

Thursday, April 17, 2014

  Actual Average Record
Temperature  
Mean Temperature 34 °F 46 °F  
Max Temperature 45 °F 59 °F 86 °F (1915)
Min Temperature 23 °F 33 °F 10 °F (1953)
Degree Days  
Heating Degree Days 31 19  
Month to date heating degree days 476 382  
Since 1 July heating degree days 8160 7384  
Cooling Degree Days 0 0  
Month to date cooling degree days 0 0  
Year to date cooling degree days 0 0  
Moisture  
Dew Point 19 °F    
Average Humidity 55    
Maximum Humidity 74    
Minimum Humidity 36    
Precipitation  
Precipitation 0.00 in 0.05 in 0.95 in (1978)
Month to date precipitation 0.31 0.65  
Year to date precipitation 1.43 2.28  
Snow  
Snow 0.00 in - - ()
Month to date snowfall 3.5  
Since 1 July snowfall 44.3  
Snow Depth 0.00 in    
Sea Level Pressure  
Sea Level Pressure 30.26 in    
Wind  
Wind Speed 12 mph (SE)    
Max Wind Speed 23 mph    
Max Gust Speed 27 mph    
Visibility 10 miles    
Events      
T = Trace of Precipitation, MM = Missing Value Source: NWS Daily Summary

Daily Weather History Graph

Daily Weather History Graph

Search for Another Location

Airport:

Trip Planner

Search our weather history database for the weather conditions in past years. The results will help you decide how hot, cold, wet, or windy it might be!

Date:

Astronomy

Apr. 17, 2014 Rise Set
Actual Time 6:52 AM CDT 8:30 PM CDT
Civil Twilight 6:21 AM CDT 9:01 PM CDT
Nautical Twilight 5:43 AM CDT 9:39 PM CDT
Astronomical Twilight 5:02 AM CDT 10:21 PM CDT
Moon 11:24 PM CDT (4/17) 8:20 AM CDT (4/17)
Length of Visible Light 14h 40m
Length of Day
13h 38m
Waning Gibbous, 93% of the Moon is Illuminated
Apr 17
Waning Gibbous
Apr 22
Last Quarter
Apr 29
New
May 6
First Quarter
May 14
Full

Hourly Weather History & Observations

Time (CDT) Temp. Windchill Dew Point Humidity Pressure Visibility Wind Dir Wind Speed Gust Speed Precip Events Conditions
12:52 AM 27.0 °F 18.0 °F 17.1 °F 66% 30.29 in 10.0 mi ENE 9.2 mph - N/A   Partly Cloudy
1:52 AM 27.0 °F 16.1 °F 17.1 °F 66% 30.30 in 10.0 mi East 12.7 mph - N/A   Partly Cloudy
2:52 AM 26.1 °F 15.0 °F 17.1 °F 69% 30.30 in 10.0 mi East 12.7 mph - N/A   Mostly Cloudy
3:52 AM 26.1 °F 16.2 °F 15.1 °F 63% 30.30 in 10.0 mi East 10.4 mph - N/A   Overcast
4:52 AM 26.1 °F 19.4 °F 14.0 °F 60% 30.31 in 10.0 mi SE 5.8 mph - N/A   Overcast
5:52 AM 26.1 °F - 16.0 °F 66% 30.32 in 10.0 mi Calm Calm - N/A   Overcast
6:52 AM 23.0 °F 15.8 °F 15.1 °F 72% 30.33 in 10.0 mi ESE 5.8 mph - N/A   Mostly Cloudy
7:52 AM 25.0 °F 18.1 °F 16.0 °F 69% 30.34 in 10.0 mi ESE 5.8 mph - N/A   Overcast
8:52 AM 27.0 °F 18.0 °F 15.1 °F 61% 30.35 in 10.0 mi ESE 9.2 mph - N/A   Clear
9:52 AM 32.0 °F 24.8 °F 16.0 °F 52% 30.34 in 10.0 mi SSE 8.1 mph - N/A   Clear
10:52 AM 34.0 °F 26.6 °F 17.1 °F 50% 30.33 in 10.0 mi SSE 9.2 mph - N/A   Overcast
12:52 PM 37.9 °F 30.9 °F 17.1 °F 43% 30.29 in 10.0 mi South 10.4 mph - N/A   Mostly Cloudy
1:52 PM 43.0 °F 35.1 °F 17.1 °F 35% 30.26 in 10.0 mi SSE 17.3 mph - N/A   Mostly Cloudy
2:52 PM 45.0 °F 38.2 °F 19.0 °F 36% 30.25 in 10.0 mi South 15.0 mph 23.0 mph N/A   Overcast
3:52 PM 44.1 °F 36.5 °F 21.9 °F 42% 30.23 in 10.0 mi South 17.3 mph - N/A   Overcast
4:52 PM 45.0 °F 37.9 °F 24.1 °F 44% 30.20 in 10.0 mi SSE 16.1 mph - N/A   Overcast
5:52 PM 43.0 °F 35.1 °F 23.0 °F 45% 30.19 in 10.0 mi South 17.3 mph - N/A   Overcast
6:52 PM 45.0 °F 37.6 °F 23.0 °F 42% 30.18 in 10.0 mi South 17.3 mph - N/A   Mostly Cloudy
7:52 PM 42.1 °F 34.9 °F 24.1 °F 49% 30.17 in 10.0 mi SSE 13.8 mph - N/A   Mostly Cloudy
8:52 PM 37.9 °F 30.0 °F 21.9 °F 53% 30.18 in 10.0 mi SE 12.7 mph - N/A   Clear
9:52 PM 37.0 °F 28.1 °F 21.9 °F 54% 30.17 in 10.0 mi ESE 15.0 mph - N/A   Clear
10:52 PM 34.0 °F 24.2 °F 21.9 °F 61% 30.17 in 10.0 mi ESE 15.0 mph - N/A   Clear
11:52 PM 33.1 °F 23.0 °F 21.9 °F 64% 30.15 in 10.0 mi SE 15.0 mph - N/A   Partly Cloudy